* Astronomy

Members Login
Username 
 
Password 
    Remember Me  
Post Info TOPIC: Asteroid 2010 TY53


L

Posts: 131433
Date:
Asteroid 2010 TY53
Permalink  
 


Orbital elements:
2010 TY53
Epoch 2011 Aug. 27.0 TT = JDT 2455800.5                 MPC
M 316.27376              (2000.0)            P               Q
n   0.00390439     Peri.    2.31077     -0.39838430     -0.84545178
a  39.9424104      Node   111.34433     +0.83528864     -0.49460854
e   0.4761955      Incl.   22.44907     +0.37892326     +0.20142910
P 252              H    5.2           G   0.15           U   6

MPEC 2011 - R36

Diameter: 250 km - 540 km



__________________
Page 1 of 1  sorted by
Quick Reply

Please log in to post quick replies.



Create your own FREE Forum
Report Abuse
Powered by ActiveBoard